Location: Bakov nad Jizerou
(50.4784°N, 14.9394°E)
Time: 07:25:44
(UTC+00:00)

Cosmos 1486 Rocket - Pass Details

Date: 16 June 2021
Orbit: 759 x 783 km, 74.1° (Epoch: 04 August)

Event Time Altitude Azimuth Distance (km) Brightness Sun altitude
Rises 22:10:23 0° 332° (NNW) 3,241 8.8 -15.3°
Reaches altitude 10° 22:12:49 10° 328° (NNW) 2,308 7.6 -15.4°
Maximum altitude 22:17:52 51° 253° (WSW) 957 4.4 -15.5°
Enters shadow 22:20:48 24° 189° (S) 1,548 5.0 -15.6°
